Location: Grisols
(45.0093°N, 3.1167°E)
Time: 05:31:36
(UTC+00:00)

SJ 16-02 - Pass Details

Date: 21 October 2019
Orbit: 607 x 616 km, 75.0° (Epoch: 12 November)

Event Time Altitude Azimuth Distance (km) Brightness Sun altitude
Rises 18:20:14 0° 351° (N) 2,880 4.9 -16.1°
Reaches altitude 10° 18:22:52 10° 6° (N) 1,969 3.9 -16.5°
Enters shadow 18:25:45 22° 46° (NE) 1,332 2.7 -17.1°
